Wind_Speed
33 33 33 33 33 32 32 33 33 32 32 32 32 32 31 31 31 30 30 30 30 30 29 29 29 29 29 29 29 29 28 28 28 28 27 27 26 26 25 25 25 25 24
35 34 35 35 35 34 34 34 34 34 33 34 34 33 33 33 33 33 33 33 33 33 32 32 32 31 31 31 31 31 30 29 29 29 29 28 28 28 27 27 27 26 26
37 37 36 36 36 36 36 36 36 36 36 36 36 36 35 35 35 35 35 35 35 35 35 34 33 33 33 32 32 32 31 31 31 30 30 30 30 30 30 29 28 28 27
39 39 38 37 38 38 38 39 38 38 38 38 38 38 38 38 37 37 37 37 37 37 36 36 35 35 35 34 35 34 34 33 33 32 32 31 31 31 31 30 30 29 28
41 41 41 41 40 40 40 41 41 41 41 40 40 40 40 39 39 39 39 39 39 39 38 38 38 37 37 36 36 36 36 35 35 34 34 33 33 32 32 31 31 31 30
43 43 44 44 43 43 42 42 43 43 43 43 42 42 42 42 42 41 41 41 41 40 40 41 41 40 40 39 38 38 38 37 37 37 36 35 35 34 34 33 33 33 32
43 44 45 45 45 45 44 44 45 45 45 45 45 45 44 44 44 43 42 43 43 43 43 43 43 43 43 42 41 41 40 39 39 39 38 38 37 36 36 35 35 35 35
44 45 45 45 45 46 47 47 47 47 47 46 46 46 46 46 46 45 44 45 45 45 45 44 44 45 45 44 44 43 43 42 41 41 40 39 39 38 38 38 38 37 37
45 45 46 46 46 46 47 48 48 48 48 48 47 47 47 47 47 46 46 46 46 46 47 47 47 46 46 46 46 45 45 44 43 43 42 41 41 40 39 39 39 39 39
47 47 47 47 48 48 48 49 49 50 50 49 49 49 49 49 49 48 48 48 48 48 48 48 48 48 48 48 48 48 47 47 47 46 45 44 44 43 43 42 42 42 42
49 49 49 49 49 50 50 50 51 51 51 51 51 50 50 50 50 50 50 50 50 50 50 50 50 51 50 50 51 51 50 50 49 49 48 47 47 47 45 44 44 44 44
50 50 50 50 51 52 52 52 51 52 52 52 52 52 52 52 52 52 52 51 52 52 52 53 53 53 53 53 53 53 53 53 52 52 51 51 50 49 48 48 47 47 46
52 52 52 52 52 53 53 53 53 53 53 53 53 53 53 53 53 53 53 53 53 53 54 54 54 55 55 55 55 54 54 54 55 55 54 54 53 52 52 51 50 49 49
54 54 54 54 54 54 54 53 54 54 54 54 54 54 54 54 54 54 54 55 55 55 55 54 55 55 55 56 56 56 56 56 55 55 56 56 55 54 54 53 54 52 51
55 55 55 55 55 55 55 55 55 55 55 55 55 55 55 56 56 55 55 55 56 56 55 54 55 55 56 56 56 57 56 57 56 55 55 56 56 56 55 55 55 56 55
56 57 57 56 56 55 55 56 56 56 56 56 56 57 57 58 57 57 57 57 58 58 57 56 56 56 56 57 57 58 57 57 58 57 56 56 57 57 57 57 57 57 58
56 57 57 58 57 57 57 57 57 57 57 57 57 58 58 58 58 58 58 59 59 59 59 58 57 57 57 58 58 58 58 58 58 57 57 58 58 57 58 57 58 58 59
56 57 57 57 57 57 57 57 57 58 58 58 58 59 60 60 59 60 60 60 60 60 60 60 59 59 59 59 59 59 59 59 59 59 58 59 59 59 59 59 59 59 59
57 57 58 58 58 58 58 58 59 59 59 59 59 60 60 60 60 61 62 61 61 61 61 61 61 61 60 60 60 60 60 60 60 60 60 60 59 59 59 60 60 60 60
56 56 57 58 58 59 59 59 59 60 59 59 59 59 60 60 61 62 62 62 62 62 62 62 62 62 61 61 62 61 61 61 61 61 62 61 61 61 61 61 61 61 61
56 56 57 57 57 58 58 58 58 59 58 58 58 58 58 59 59 60 61 62 62 62 62 63 63 63 62 62 62 63 63 63 62 62 62 62 62 61 61 61 61 61 61
56 56 56 57 57 56 56 57 57 58 58 58 58 58 58 58 59 59 60 61 61 62 62 63 63 63 62 62 63 63 63 63 63 62 62 62 61 61 61 61 61 61 61
55 56 56 57 57 57 56 56 56 57 57 58 58 59 59 59 59 60 60 61 61 62 63 63 63 63 63 63 63 63 63 64 63 63 63 62 62 61 61 62 62 62 63
53 54 55 55 56 56 56 56 56 57 57 57 58 58 58 59 59 60 60 60 61 62 62 63 63 63 63 63 63 63 63 63 63 63 62 62 62 61 61 62 62 62 63
51 52 53 54 54 55 55 55 56 57 57 57 57 57 57 57 58 59 59 60 60 61 62 62 63 63 64 63 63 63 63 62 62 61 61 61 61 61 61 61 62 63 63
50 51 52 53 53 54 54 55 56 56 56 56 56 56 56 56 56 57 57 58 58 59 60 61 61 62 62 61 61 61 61 61 61 60 60 60 60 61 60 60 60 61 62
Wind_Direction
257 257 257 258 258 258 257 258 257 258 258 259 259 259 259 259 259 259 260 260 260 260 260 259 261 261 262 263 264 265 265 266 266 267 267 265 265 266 267 268 268 266 265
256 257 258 259 259 259 258 258 259 258 259 259 259 260 260 260 260 260 260 260 261 261 260 261 260 261 263 263 264 264 266 266 267 267 266 265 265 266 267 268 267 265 264
256 257 258 259 259 259 258 258 259 259 260 260 260 260 260 260 261 261 260 260 260 261 261 261 261 262 263 263 264 264 264 265 266 267 266 266 266 266 267 266 265 264 263
256 256 258 259 259 259 259 258 259 260 260 260 260 261 261 261 261 261 261 261 260 260 261 261 262 262 262 263 264 264 264 264 264 265 265 265 266 266 267 265 263 262 261
257 257 258 259 259 259 260 260 260 260 260 260 260 261 261 261 262 262 262 262 262 261 261 261 262 262 262 262 263 263 263 264 264 264 265 265 265 265 266 264 262 261 260
258 258 258 259 259 260 260 260 260 260 260 261 261 261 261 261 262 263 263 262 262 262 262 262 262 262 262 262 262 262 262 263 262 263 264 264 264 264 264 262 261 260 259
259 260 259 259 259 259 259 260 260 261 261 261 262 262 261 261 261 261 262 262 262 262 262 262 262 263 263 263 263 263 263 263 263 262 263 262 262 263 263 261 260 259 258
261 260 260 259 259 260 260 260 261 261 261 261 262 262 261 261 261 261 262 262 262 262 262 262 262 263 263 263 263 263 263 263 261 261 261 261 261 261 262 261 259 258 258
261 261 261 260 259 260 261 261 261 261 261 261 261 261 262 263 262 262 263 263 263 263 262 262 262 262 263 263 263 263 263 262 261 261 261 261 260 260 260 260 260 258 258
260 260 261 261 261 261 262 262 261 261 261 261 262 262 263 263 262 263 264 264 264 264 263 263 263 263 263 263 263 263 262 262 262 261 261 261 261 260 260 260 260 260 259
261 261 261 261 262 262 262 263 262 262 262 262 263 263 263 263 263 263 264 264 265 265 265 264 263 263 264 264 264 263 262 262 262 261 261 260 261 260 260 259 259 259 259
261 261 262 262 262 262 263 263 263 263 263 263 263 263 264 264 264 263 264 264 265 265 265 264 264 264 264 264 263 263 262 261 261 261 260 260 260 261 260 259 258 259 259
261 261 261 262 262 263 263 263 263 263 263 263 263 263 264 264 264 264 265 265 265 265 265 265 265 264 264 263 262 262 261 261 261 261 260 260 260 260 260 260 259 259 258
261 261 261 261 262 263 263 263 263 263 263 263 263 263 264 264 264 265 265 266 266 266 266 265 265 264 264 263 263 262 261 261 261 261 260 259 259 259 259 260 258 258 259
261 261 261 262 262 262 263 263 263 263 263 263 263 263 264 264 264 265 265 266 266 266 265 264 265 264 263 263 262 262 262 262 261 261 261 260 259 259 259 259 259 258 258
261 260 261 261 262 262 262 262 262 262 262 262 263 264 264 264 264 264 265 265 266 265 265 264 264 263 263 263 262 262 262 262 262 262 262 261 260 260 259 259 259 258 258
260 260 260 260 261 261 262 263 262 262 262 262 263 264 264 264 264 264 265 266 266 266 265 264 264 263 262 262 262 262 263 262 262 262 262 261 261 260 259 260 260 259 259
260 260 260 260 261 261 263 263 263 263 262 263 263 264 264 264 264 265 265 265 266 266 265 265 264 263 262 262 262 262 262 262 262 262 263 262 261 261 260 260 261 261 260
262 262 260 260 260 261 263 263 263 263 263 263 264 265 264 264 264 265 264 264 265 265 265 265 265 264 263 262 262 262 262 262 262 263 263 263 262 262 262 262 262 261 261
262 262 262 261 261 262 263 263 263 264 264 264 265 264 265 265 265 265 264 264 264 264 265 265 265 264 263 263 263 263 263 263 263 263 263 263 263 262 262 263 262 262 261
263 263 263 262 263 264 264 264 264 264 264 264 264 264 264 265 265 265 265 264 264 265 265 264 264 263 263 263 263 263 263 263 263 263 263 263 263 263 262 262 262 261 260
264 263 263 263 264 264 264 264 264 264 264 263 264 265 266 266 266 265 265 265 265 265 265 265 264 263 263 263 264 264 264 264 264 263 263 263 263 263 262 261 261 260 260
264 264 264 264 265 265 265 265 264 264 265 264 265 265 266 266 266 266 266 265 265 265 265 264 264 264 264 264 264 264 264 264 264 263 263 262 262 262 262 261 260 260 260
264 264 264 265 265 266 266 266 266 266 266 266 267 267 267 266 266 267 267 267 266 265 264 264 264 264 264 265 264 264 264 263 263 262 262 262 261 262 262 261 260 260 259
264 264 264 265 265 265 266 266 266 267 267 267 267 267 267 268 268 268 268 268 267 266 265 265 264 264 264 264 264 263 263 262 261 262 262 262 261 261 261 261 260 260 259
265 264 264 264 265 265 265 266 266 267 267 268 268 268 268 269 269 268 268 268 268 267 267 266 265 265 265 264 264 263 263 262 261 261 261 261 261 261 261 261 261 260 260
Height
5788 5789 5790 5791 5792 5792 5793 5794 5795 5796 5797 5797 5798 5799 5800 5800 5801 5802 5802 5803 5804 5804 5805 5805 5806 5807 5807 5807 5808 5808 5809 5809 5809 5810 5810 5811 5811 5811 5811 5812 5812 5812 5813
5780 5781 5782 5783 5784 5785 5785 5786 5787 5788 5789 5790 5790 5791 5792 5793 5794 5794 5795 5796 5797 5797 5798 5798 5799 5800 5800 5801 5801 5802 5802 5803 5803 5803 5804 5804 5805 5805 5805 5805 5806 5806 5807
5772 5773 5774 5775 5775 5776 5777 5778 5779 5780 5781 5782 5782 5783 5784 5785 5786 5786 5787 5788 5789 5789 5790 5791 5791 5792 5793 5793 5794 5795 5795 5796 5796 5797 5797 5798 5798 5798 5799 5799 5799 5800 5800
5763 5764 5765 5766 5766 5767 5768 5770 5771 5771 5772 5773 5774 5775 5775 5776 5777 5777 5778 5779 5780 5780 5781 5782 5783 5784 5785 5785 5786 5787 5788 5788 5789 5789 5790 5790 5791 5791 5791 5792 5792 5793 5794
5753 5754 5755 5756 5757 5758 5759 5760 5761 5762 5763 5764 5765 5765 5766 5767 5767 5768 5769 5769 5770 5771 5772 5773 5774 5775 5776 5777 5778 5778 5779 5780 5781 5781 5782 5782 5783 5784 5784 5784 5785 5786 5787
5743 5744 5745 5746 5747 5748 5749 5750 5751 5752 5753 5754 5754 5755 5756 5757 5758 5758 5759 5760 5760 5761 5762 5764 5765 5766 5767 5768 5769 5769 5770 5771 5772 5772 5773 5774 5774 5775 5776 5777 5777 5778 5780
5733 5733 5734 5735 5736 5737 5738 5739 5740 5741 5742 5743 5744 5745 5746 5747 5748 5748 5749 5749 5750 5751 5752 5753 5754 5756 5757 5758 5759 5760 5761 5762 5762 5763 5763 5764 5765 5766 5767 5768 5769 5770 5772
5722 5722 5723 5724 5725 5726 5727 5728 5729 5730 5731 5732 5733 5733 5734 5736 5737 5737 5738 5739 5740 5740 5741 5742 5744 5745 5746 5747 5748 5749 5750 5751 5752 5753 5753 5754 5755 5756 5757 5759 5760 5761 5763
5710 5711 5712 5712 5713 5714 5715 5716 5717 5718 5719 5720 5720 5722 5723 5724 5725 5726 5727 5727 5728 5729 5730 5731 5732 5733 5734 5736 5737 5738 5739 5740 5741 5742 5743 5744 5745 5746 5747 5749 5750 5752 5754
5698 5699 5700 5701 5701 5702 5703 5704 5705 5706 5707 5707 5708 5709 5710 5711 5712 5714 5715 5715 5716 5717 5718 5719 5720 5721 5722 5723 5724 5726 5727 5728 5729 5730 5732 5733 5734 5736 5737 5739 5740 5742 5743
5686 5686 5687 5688 5689 5689 5690 5691 5692 5692 5694 5694 5695 5697 5698 5698 5699 5701 5702 5703 5704 5704 5705 5706 5707 5708 5709 5710 5711 5712 5714 5715 5717 5718 5720 5721 5722 5724 5726 5727 5729 5730 5732
5673 5674 5674 5675 5676 5677 5677 5678 5678 5679 5680 5681 5682 5683 5684 5685 5686 5687 5689 5690 5690 5691 5692 5692 5693 5694 5695 5696 5697 5699 5700 5701 5703 5705 5706 5708 5710 5711 5713 5715 5717 5719 5720
5659 5660 5661 5662 5662 5663 5663 5664 5665 5666 5667 5668 5669 5670 5671 5672 5673 5674 5674 5675 5677 5678 5678 5678 5679 5680 5680 5681 5683 5684 5685 5687 5689 5691 5692 5694 5696 5698 5700 5701 5703 5705 5708
5645 5646 5647 5648 5648 5649 5649 5650 5651 5651 5653 5654 5655 5656 5657 5658 5659 5660 5660 5661 5662 5663 5664 5664 5664 5665 5666 5667 5668 5669 5671 5672 5674 5675 5677 5679 5681 5684 5685 5687 5690 5692 5694
5631 5632 5632 5633 5634 5635 5635 5636 5636 5637 5638 5639 5640 5641 5642 5643 5644 5645 5646 5646 5647 5648 5649 5650 5650 5651 5651 5652 5653 5654 5656 5657 5659 5660 5662 5664 5666 5668 5670 5673 5675 5677 5679
5616 5617 5618 5618 5619 5620 5621 5621 5622 5622 5623 5625 5626 5626 5627 5628 5629 5630 5630 5631 5631 5632 5633 5635 5635 5636 5636 5637 5638 5639 5641 5642 5643 5645 5647 5649 5651 5653 5655 5657 5660 5662 5664
5600 5602 5602 5603 5604 5605 5606 5606 5606 5607 5608 5609 5610 5611 5612 5613 5613 5614 5614 5615 5615 5616 5617 5619 5620 5620 5621 5622 5623 5624 5625 5627 5628 5630 5631 5633 5635 5637 5639 5641 5644 5646 5648
5585 5586 5587 5588 5589 5590 5590 5591 5591 5592 5593 5594 5595 5595 5596 5596 5597 5598 5598 5598 5599 5599 5600 5602 5603 5604 5605 5606 5607 5609 5610 5611 5613 5614 5616 5617 5619 5621 5623 5625 5627 5629 5631
5569 5570 5571 5572 5573 5574 5574 5575 5576 5576 5577 5578 5579 5579 5580 5580 5580 5581 5581 5582 5582 5583 5583 5584 5586 5587 5588 5589 5591 5592 5593 5595 5596 5598 5599 5601 5602 5604 5606 5608 5610 5612 5614
5554 5555 5555 5556 5557 5557 5558 5559 5560 5560 5561 5562 5562 5562 5563 5563 5564 5564 5564 5565 5565 5566 5566 5567 5568 5570 5571 5572 5573 5575 5576 5578 5579 5581 5582 5584 5585 5587 5589 5590 5593 5594 5596
5539 5539 5540 5540 5541 5541 5542 5543 5543 5544 5544 5545 5545 5546 5546 5546 5546 5546 5547 5547 5548 5548 5548 5549 5550 5552 5553 5554 5555 5557 5558 5559 5561 5562 5564 5566 5568 5570 5571 5572 5574 5575 5578
5523 5523 5524 5524 5525 5525 5526 5526 5527 5527 5528 5528 5529 5529 5529 5529 5529 5529 5529 5530 5530 5530 5531 5531 5532 5534 5535 5536 5537 5538 5539 5541 5543 5546 5546 5547 5549 5550 5552 5554 5556 5557 5560
5507 5507 5508 5508 5509 5509 5510 5510 5510 5510 5511 5511 5512 5512 5512 5512 5512 5512 5512 5512 5512 5512 5512 5513 5514 5515 5516 5518 5519 5520 5520 5521 5523 5525 5526 5529 5530 5532 5534 5535 5537 5539 5541
5491 5491 5492 5492 5493 5493 5493 5494 5493 5494 5494 5494 5494 5494 5495 5495 5494 5494 5494 5494 5494 5494 5495 5495 5496 5497 5497 5498 5499 5500 5501 5502 5504 5505 5507 5510 5512 5513 5515 5517 5519 5521 5523
5475 5475 5476 5476 5477 5477 5477 5477 5477 5477 5477 5477 5477 5477 5477 5477 5477 5476 5476 5476 5476 5475 5475 5475 5476 5476 5477 5478 5479 5480 5481 5483 5485 5487 5488 5491 5493 5494 5496 5498 5500 5502 5504
5460 5460 5460 5460 5461 5461 5461 5460 5460 5460 5461 5460 5460 5460 5460 5460 5459 5458 5458 5458 5457 5457 5457 5457 5457 5457 5458 5459 5460 5461 5462 5464 5466 5469 5470 5472 5474 5475 5478 5480 5482 5484 5485